Weather in Salo

Finland     60°23′10″N   23°07′19″E
В апреле 2022 года жителям России запретили посещать сайт meteo.paraplan.net по решению Генеральной прокуратуры. Аудитория сайта уменьшилась в 10 раз. Владельцы сайта не видят смысла в поддержке погодного сервера в таких условиях. Сайт будет закрыт в октябре.
temp.,
°C
wind,
m/s
gust,
m/s
humid.,
%
clouds,
%
prec.,
mm/h
press.,
hPa
HPBL,
m
25 september, sun
sun2500:00+7ne11905 0.0 101510
03:00+6ne11925 0.0 101510
06:00+6n11925 0.0 101510
09:00+8ne12845 0.0 101474
12:00+13n01575 0.0 1013534
15:00+15nw114913 0.0 10111189
18:00+13nnw016121 0.0 101046
21:00+8ese228244 0.0 100923
26 september, mon
mon2600:00+7se248555 0.0 100889
03:00+7se2682100 0.0 1007154
06:00+7ese3791100 1.2 1006209
09:00+8ese399175 1.9 1006307
12:00+13se477269 0.1 1006986
15:00+14sse476544 0.6 10061301
18:00+13sse48702 0.1 1006794
21:00+9ese411860 0.1 1007331
27 september, tue
tue2700:00+8ese411905 0.0 1008319
03:00+8ese4129047 0.0 1008343
06:00+8ese4119180 0.0 1008321
09:00+9ese4118638 0.0 1009437
12:00+13ese58625 0.0 1010850
15:00+15ese46535 0.0 10101252
18:00+12ese48615 0.0 1010825
21:00+9e4118312 0.0 1011553
28 september, wed
wed2800:00+8e4119029 0.0 1011434
03:00+6ene310935 0.0 1011330
06:00+6ene4119676 0.0 1010425
09:00+8ene41182100 0.0 1009582
12:00+10ene4974100 0.1 10091141
15:00+10e5976100 0.6 10081058
18:00+10ene51075100 0.0 10081056
21:00+8ene4108598 0.3 10081121
29 september, thu
thu2900:00+8ene51185100 1.1 10071120
03:00+7ene5987100 2.3 10071078
06:00+7ene5991100 0.6 1006944
09:00+6ene5992100 1.1 1005767
12:00+6ene41093100 0.4 1005669
15:00+6ene3993100 1.0 1005562
18:00+6ene3894100 0.2 1005419
21:00+6ene2696100 0.6 1005237